User: anonymous   Login
Location: Chenango Forks
(42.2242°N, 75.8278°W)
Time: 14:35:16
(UTC-04:00)
Language:

Okean 3 Rocket - Orbit

View from above orbital plane
View from above orbital plane
View from above satellite
View from above satellite

Ground track
Ground track

The orbit data is extracted from the following two-line orbital elements,

1 21398U 91039B   16239.23316023  .00000059  00000-0  46956-5 0  9995
2 21398  82.5248 140.7538 0022986  70.8137  42.2568 14.79619966360290
Epoch (UTC): 26 August 2016 05:35:45
Eccentricity: 0.0022986
inclination: 82.5248°
perigee height: 614 km
apogee height: 646 km
right ascension of ascending node: 140.7538°
argument of perigee: 70.8137°
revolutions per day: 14.79619966
mean anomaly at epoch: 42.2568°
orbit number at epoch: 36029

The dashed part of the orbit path shows where the satellite is in the earth's shadow,  

DLR